{"data":{"norad_id":68935,"intl_designator":"2026-098S","name":"KUIPER-00430","alt_names":[],"object_type":"PAYLOAD","status":"ACTIVE","operator":null,"country":"US","launch_date":"2026-04-30","launch_site_code":"FRGUI","launch_vehicle":null,"mission":null,"orbit_class":"UNKNOWN","rcs_meters":null,"size_class":null,"mass_kg":null,"dimensions":null,"purposes":[],"wikipedia_slug":null,"has_3d_model":false,"image_url":null,"decayed_at":null,"tle_current":{"epoch":"2026-05-24T12:25:15.830112Z","epoch_age_seconds":110622,"freshness":"FRESH","line1":"1 68935U 26098S   26144.51754433  .00027087  00000+0  90431-3 0  9998","line2":"2 68935  51.8747 182.3571 0017756  75.0039 285.2909 15.30704793  3706","mean_motion":15.30704793,"eccentricity":0.0017756,"inclination_deg":51.8747,"raan_deg":182.3571,"arg_perigee_deg":75.0039,"mean_anomaly_deg":285.2909,"bstar":0.00090431,"rev_number":370,"period_min":94.074311819314,"perigee_km":461.54212628464,"apogee_km":485.87439918166,"semimajor_km":6851.8452627332,"source":"CELESTRAK","updated_at":"2026-05-25T13:38:08.795828Z"}}}